Regional Weather Roundup
Issued by NWS

Home | Current Version | Previous Version | Graphics & Text | Print | Product List | Glossary On
Versions: 1 2 3 4 5 6 7 8 9 10 11 12 13 14 15 16 17 18 19 20 21 22 23 24 25 26 27 28 29 30 31 32 33 34 35 36 37 38 39 40 41 42 43 44 45 46 47 48 49 50
000
ASUS43 KMKX 310111
RWRWI

WISCONSIN REGIONAL WEATHER ROUNDUP
NATIONAL WEATHER SERVICE MILWAUKEE/SULLIVAN WI
800 PM CDT MON MAY 30 2016

NOTE: "FAIR" INDICATES FEW OR NO CLOUDS BELOW 12,000 FEET WITH NO
SIGNIFICANT WEATHER AND/OR OBSTRUCTIONS TO VISIBILITY.

WIZ001-002-006>008-014>016-023>028-310200-
NORTHWEST WISCONSIN

CITY           SKY/WX    TMP DP  RH WIND       PRES   REMARKS
SUPERIOR ARPT  CLOUDY    64  49  58 W5        29.92R
ASHLAND        PTCLDY    70  46  42 E7        29.95R
HAYWARD        PTCLDY    72  57  59 S3        29.94S
SIREN          CLEAR     76  53  44 CALM      29.92R
CUMBERLAND     CLEAR     70  55  60 S5        29.94S
RICE LAKE      CLEAR     76  51  42 CALM      29.94F
CHETEK         CLEAR     75  54  47 SE3       29.94S
LADYSMITH      PTCLDY    74  53  48 S3        29.97S
EAU CLAIRE     CLEAR     76  52  43 SE5       29.93S
MENOMONIE      PTCLDY    74  53  46 SE5       29.93S
NEW RICHMOND   CLOUDY    74  52  45 SE3       29.92S
OSCEOLA        PTCLDY    76  54  46 SE5       29.93S
$$

WIZ003>005-009-010-017-018-310200-
NORTH CENTRAL WISCONSIN

CITY           SKY/WX    TMP DP  RH WIND       PRES   REMARKS
MANITOWISH WTR NOT AVBL
ARBOR VITAE    PTCLDY    72  57  59 CALM      29.98S
WOODRUFF       PTCLDY    72  57  59 CALM      29.98S
RHINELANDER    PTCLDY    67  54  63 W3        29.99S
EAGLE RIVER      N/A     69  50  51 CALM      29.98S
LAND O LAKES   CLEAR     71  43  36 CALM      30.00S
PHILLIPS       MOCLDY    70  55  57 E3        29.96S
TOMAHAWK       CLOUDY    69  56  62 CALM      29.98S
MEDFORD        CLEAR     71  60  67 CALM      29.97F
MERRILL        PTCLDY    73  52  47 SW3       29.98S
$$

WIZ029-030-035-036-043>047-310200-
CENTRAL WISCONSIN

CITY           SKY/WX    TMP DP  RH WIND       PRES   REMARKS
WAUSAU         CLEAR     75  52  44 CALM      29.96S
MOSINEE        CLEAR     72  54  53 S3        29.99S
MARSHFIELD     CLEAR     74  51  44 E5        29.96S
STEVENS POINT  CLEAR     72  52  49 CALM      29.98S
WAUPACA        CLEAR     74  58  55 CALM      29.97S
WAUTOMA        CLEAR    N/A N/A N/A NE3       29.97S
WISC RAPIDS    CLEAR     77  47  34 NE6       29.98S
CAMP DOUGLAS   CLEAR     77  57  49 S3        29.96S
$$

WIZ011>013-019>022-031-037>040-048>050-310200-
NORTHEAST WISCONSIN

CITY           SKY/WX    TMP DP  RH WIND       PRES   REMARKS
ANTIGO         CLEAR     70  57  63 CALM      29.99S
SHAWANO        CLEAR     76  49  37 W3        29.97R
OCONTO         CLEAR     70  58  66 CALM      29.95R
STURGEON BAY   NOT AVBL
GREEN BAY      CLEAR     76  57  51 SW3       29.97R
MANITOWOC      CLEAR     65  56  72 SE5       29.99S
APPLETON       PTCLDY    75  43  31 CALM      29.96S
CLINTONVILLE   CLEAR     75  50  41 CALM      29.97S
OSHKOSH        CLEAR     70  57  63 SE3       29.98R
$$

WIZ032>034-041-042-053>061-310200-
SOUTHWEST WISCONSIN

CITY           SKY/WX    TMP DP  RH WIND       PRES   REMARKS
LA CROSSE      PTCLDY    77  53  43 S3        29.93R
SPARTA         CLOUDY    75  54  46 S3        29.96R
VIROQUA        PTCLDY    74  50  42 SE6       29.97S
BOSCOBEL       PTCLDY    74  60  61 CALM      29.95R
PRAIRIE DU CHI CLOUDY    75  55  50 E3        29.93R
PLATTEVILLE    CLEAR     77  52  42 E7        29.96S
$$

WIZ056-057-062-063-064-067-068-310200-
SOUTH CENTRAL WISCONSIN

CITY           SKY/WX    TMP DP  RH WIND       PRES   REMARKS
REEDSBURG      CLEAR     76  52  42 CALM      29.96S
BARABOO/DELLS  CLEAR     75  49  39 SE3       29.97S
LONE ROCK      PTCLDY    76  54  46 E3        29.96R
MINERAL POINT  CLEAR     75  50  41 E5        29.97S
MADISON        PTCLDY    74  48  39 CALM      29.97S
MIDDLETON      CLEAR     75  53  46 E3        29.98S
WATERTOWN      CLEAR     75  53  46 CALM      29.98R
MONROE         CLEAR     79  41  25 CALM      29.97S
JANESVILLE     PTCLDY    81  46  30 CALM      29.96S HX  80
$$

WIZ051-052-058>065-066-070>072-310200-
SOUTHEAST WISCONSIN

CITY           SKY/WX    TMP DP  RH WIND       PRES   REMARKS
MILWAUKEE      PTCLDY    68  56  65 SE5       29.99S
WAUKESHA       CLEAR     72  55  56 E9        30.00R
MILWAUKEE/TIMM CLEAR     72  52  49 SE6       30.00S
RACINE         CLEAR     66  57  72 E3        30.00S
BURLINGTON     CLEAR     73  55  54 E7        29.98S
KENOSHA        CLEAR     70  54  56 E6        29.99R
FOND DU LAC    CLEAR     76  51  41 E3        29.97S
SHEBOYGAN      CLEAR     70  56  61 S6        29.99R
WEST BEND      CLEAR     70  55  60 CALM      29.99S
JUNEAU         CLEAR     74  54  49 SE3       29.99R
$$

LSZ147-162-310200-
LAKE SUPERIOR

STATION/POSITION TIME  TEMP    WIND        PRES    WAVE
                       AIR SEA DIR/SP/G            HT/PER
                 (UTC) (F)     (DEG/KT/KT) (MB)    (FT/S)
W MID LAKE BUOY  0050   50 38   80/  4/  4 1014.9R   1
DEVILS ISLAND    0100   70      80/ 12/ 13 1013.7S
SAXON HARBOR     0040   67      CALM  /  6 1013.5S
$$

LMZ867-665-643>646-310200-
LAKE MICHIGAN

STATION/POSITION TIME  TEMP    WIND        PRES    WAVE
                       AIR SEA DIR/SP/G            HT/PER
                 (UTC) (F)     (DEG/KT/KT) (MB)    (FT/S)
CHAMBERS ISLAND  0000   74     160/  2/  7 1013.9R
N MID LAKE BUOY  0050   54 50  220/ 10/ 12 1014.2R   1/ 3
NORTHPORT PIER   0000   70     170/  6/  8 1013.9S
KEWAUNEE LAKESHO 0000   56                   N/A
SHEBOYGAN LAKESH 0100   67     210/  6/  6 1015.5S
PORT WASHINGTON  0000   66     190/  4/  5 1015.9F
S MID LAKE BUOY  0050   61 58   90/  4/  6 1015.2S   0
KENOSHA   LAKESH 0100   60      30/  3/  5 1014.9S
$$

TC  - TEMPERATURE IN CELSIUS
VSB - VISIBILITY IN STATUTE MILES
WCI - WIND CHILL INDEX
HX  - HEAT INDEX




USA.gov is the U.S. government's official web portal to all federal, state and local government web resources and services.